[[{"header":{"parameterUnit":"m.s-1","parameterCategory":1,"la1":30.2991,"la2":30.254,"lo1":-89.0895,"lo2":-89.0444,"dy":0.0017,"dx":0.0017,"nx":28,"ny":28,"refTime":"2024-05-18T09:00:00:Z","depth":0,"parameterNumber":2,"parameterNumberName":"U-component_of_WINDS"},"data":[0,0,0,0,0,0,0,0,0,0,0,0,0,0,0,0,0,0,0,0,0,0,0,0,0,0,0,0,0,0,0,0,0,0,0,0,0,0,0,0,0,0,0,0,0,0,0,0,0,0,0,0,0,0,0,0,0,0,0.31,0.3101,0,0.3174,0.3175,0.3176,0.319,0.3189,0.3189,0.3188,0.3265,0.3268,0.3271,0,0,0,0,0,0,0,0,0,0,0,0,0,0.2971,0.2974,0.31,0.3101,0.3102,0.3174,0.3175,0.3176,0.319,0.3189,0.3189,0.3188,0.3265,0.3268,0.3271,0,0,0,0,0,0,0,0,0,0,0,0,0,0.3035,0.2975,0.31,0.3118,0.312,0.3174,0.3175,0.3176,0.319,0.3189,0.3188,0.3188,0.3264,0.3267,0.3271,0.3313,0,0,0.3283,0.3285,0,0,0,0,0,0,0,0,0.3031,0.3039,0.3114,0.3117,0.3119,0.3172,0.3158,0.3222,0.319,0.3164,0.3188,0.3187,0.3235,0.3241,0.3257,0.3317,0.332,0.3284,0.3286,0.3288,0.3289,0,0,0,0,0,0,0,0.3027,0.3036,0.313,0.3115,0.3118,0.3122,0.313,0.317,0.3204,0.3166,0.3167,0.3175,0.3236,0.3253,0.3259,0.3321,0.3284,0.3287,0.3289,0.3291,0.3418,0.3419,0,0,0,0,0,0,0.3019,0.3032,0.3127,0.3132,0.3072,0.3125,0.3134,0.3156,0.3203,0.3209,0.3176,0.3176,0.3247,0.3255,0.3262,0.3313,0.3288,0.3291,0.3294,0.3417,0.3418,0.3419,0,0,0,0,0,0,0.3016,0.3027,0.3124,0.3082,0.3095,0.3128,0.3153,0.3158,0.3175,0.3211,0.3217,0.3187,0.3247,0.3256,0.33,0.3316,0.3293,0.3297,0.3416,0.3417,0.3419,0.3417,0,0,0,0,0,0,0.3012,0.3026,0.3043,0.3083,0.3097,0.3161,0.3154,0.316,0.3181,0.3182,0.3223,0.3229,0.3247,0.3294,0.3304,0.3321,0.33,0.3414,0.3416,0.3418,0.3416,0.3418,0.342,0,0,0,0,0,0.3008,0.304,0.3043,0.3055,0.3118,0.3162,0.317,0.3189,0.3183,0.3199,0.3222,0.3228,0.3313,0.3298,0.331,0.3328,0.3414,0.3416,0.3418,0.3415,0.3418,0.342,0,0,0,0,0,0,0.3001,0.3045,0.305,0.3096,0.3125,0.3164,0.3186,0.3192,0.3224,0.3223,0.3246,0.3256,0.3298,0.3318,0.3301,0.3371,0.3363,0.3367,0.3356,0.336,0.3362,0.3356,0.3303,0,0,0,0,0,0.3005,0.3037,0.3073,0.311,0.3125,0.3152,0.3172,0.3184,0.3216,0.3228,0.3255,0.3285,0.3319,0.334,0.3373,0.3419,0.3427,0.3437,0.3439,0.3441,0.3445,0.3469,0.3473,0.3427,0.3427,0.3427,0,0,0.3014,0.3041,0.306,0.311,0.3134,0.3166,0.3163,0.3197,0.3221,0.3234,0.3276,0.3296,0.3332,0.3376,0.3397,0.3394,0.3459,0.3444,0.3445,0.3448,0.3472,0.3476,0.348,0.3428,0.3428,0.3428,0,0,0.3045,0.307,0.3102,0.3126,0.3162,0.318,0.3188,0.3226,0.324,0.3282,0.3292,0.3321,0.3379,0.3403,0.3423,0.3462,0.3468,0.3473,0.3485,0.3508,0.3512,0.3515,0.3528,0.3533,0.3476,0.3476,0.3476,0,0.3051,0.3099,0.3119,0.3152,0.3173,0.3185,0.3218,0.3241,0.3286,0.33,0.3296,0.3367,0.3392,0.3442,0.3451,0.3467,0.3477,0.3468,0.351,0.3513,0.3517,0.353,0.3535,0.3476,0.3476,0.3476,0.3476,0,0.3104,0.3138,0.316,0.3202,0.3226,0.3259,0.3283,0.3305,0.3315,0.3333,0.3376,0.3406,0.3445,0.3457,0.3468,0.3508,0.3505,0.3505,0.3497,0.3521,0.3533,0.3539,0.3477,0.3477,0.3477,0.3476,0,0,0.3135,0.3186,0.3194,0.3212,0.3252,0.3279,0.3312,0.3349,0.3367,0.3397,0.3426,0.3473,0.3473,0.3496,0.3509,0.353,0.3557,0.3527,0.3528,0.3531,0.3603,0.3602,0.3607,0.3562,0.3563,0.3564,0.3599,0,0.317,0.323,0.3247,0.3297,0.3328,0.3339,0.3368,0.3396,0.3414,0.3442,0.3462,0.3495,0.3493,0.3506,0.3527,0.3549,0.3572,0.3547,0.3588,0.3589,0.3578,0.3614,0.3614,0.3646,0.3605,0.3605,0.3606,0,0.322,0.325,0.3303,0.3338,0.3351,0.3377,0.3411,0.3439,0.347,0.3482,0.3506,0.3517,0.3552,0.3542,0.3591,0.3573,0.3591,0.3604,0.3606,0.361,0.3599,0.3619,0.3657,0.3662,0.3614,0.3613,0.3613,0,0.3235,0.3289,0.3328,0.3343,0.3385,0.3403,0.3421,0.3452,0.3472,0.3503,0.3516,0.3551,0.3569,0.3596,0.3616,0.3607,0.3662,0.3654,0.3672,0.3672,0.3683,0.3682,0.3725,0.3695,0.3695,0.3695,0.3695,0,0.3273,0.3305,0.3335,0.3358,0.3394,0.3414,0.3448,0.3467,0.3494,0.3521,0.3533,0.3559,0.3584,0.3612,0.3628,0.3665,0.3674,0.3684,0.3688,0.3683,0.3681,0.3694,0.3692,0.3697,0.3696,0.3696,0.3696,0,0.3296,0.3318,0.336,0.3396,0.3406,0.343,0.3461,0.3484,0.3502,0.3536,0.3545,0.3574,0.3608,0.363,0.3674,0.3685,0.3725,0.3728,0.3714,0.3716,0.3732,0.373,0.3784,0.3792,0.3758,0.3758,0.3758,0,0.3318,0.3343,0.3381,0.34,0.3418,0.3448,0.3469,0.3489,0.3511,0.3547,0.3566,0.36,0.3629,0.3683,0.3708,0.3741,0.3745,0.3762,0.3751,0.3744,0.3745,0.3743,0.3745,0.3764,0.3764,0.3764,0.3764,0,0.3355,0.3365,0.3394,0.3427,0.3451,0.3478,0.3505,0.352,0.3545,0.3568,0.3602,0.3625,0.3669,0.3703,0.3738,0.3757,0.3765,0.3768,0.3774,0.3768,0.3759,0.3763,0.3718,0.3766,0.3766,0.3766,0.3766,0.3766,0.3379,0.34,0.343,0.3462,0.3484,0.3509,0.3532,0.3552,0.3581,0.3618,0.3629,0.3664,0.3694,0.3742,0.3762,0.379,0.3788,0.3797,0.3799,0.3801,0.38,0.3754,0.3797,0.3797,0.3797,0.3797,0.3797,0,0.3415,0.3435,0.3464,0.3501,0.3526,0.353,0.356,0.358,0.3612,0.3639,0.3666,0.3705,0.3738,0.3765,0.3799,0.3816,0.3821,0.3825,0.3823,0.3827,0.3801,0.3792,0.382,0.382,0.382,0.382,0.382,0.382,0.3437,0.3474,0.3486,0.3534,0.3553,0.3588,0.3605,0.3627,0.3649,0.3692,0.3719,0.3736,0.3762,0.3798,0.3828,0.3835,0.3847,0.385,0.3858,0.3832,0.3829,0.3827,0.3819,0.3852,0.3852,0.3882,0.3882,0.3882]},{"header":{"parameterUnit":"m.s-1","parameterCategory":1,"la1":30.2991,"la2":30.254,"lo1":-89.0895,"lo2":-89.0444,"dy":0.0017,"dx":0.0017,"nx":28,"ny":28,"refTime":"2024-05-18T09:00:00:Z","depth":0,"parameterNumber":3,"parameterNumberName":"V-component_of_WINDS"},"data":[0,0,0,0,0,0,0,0,0,0,0,0,0,0,0,0,0,0,0,0,0,0,0,0,0,0,0,0,0,0,0,0,0,0,0,0,0,0,0,0,0,0,0,0,0,0,0,0,0,0,0,0,0,0,0,0,0,0,2.5532,2.5531,0,2.5455,2.5454,2.5453,2.5356,2.5354,2.5353,2.5351,2.5272,2.5271,2.5271,0,0,0,0,0,0,0,0,0,0,0,0,0,2.5595,2.5594,2.5532,2.5531,2.553,2.5455,2.5454,2.5453,2.5356,2.5354,2.5352,2.5351,2.5272,2.5272,2.5271,0,0,0,0,0,0,0,0,0,0,0,0,0,2.5548,2.5594,2.5533,2.5473,2.5467,2.5455,2.5454,2.5453,2.5357,2.5354,2.5352,2.535,2.5273,2.5272,2.5271,2.5311,0,0,2.5268,2.5267,0,0,0,0,0,0,0,0,2.5551,2.5546,2.5483,2.5477,2.547,2.5413,2.5447,2.5405,2.5357,2.5398,2.5351,2.5349,2.5321,2.5316,2.5306,2.5308,2.5304,2.5268,2.5267,2.5266,2.5266,0,0,0,0,0,0,0,2.5554,2.5548,2.5502,2.5482,2.5474,2.545,2.544,2.5439,2.5374,2.5395,2.5387,2.538,2.5317,2.5307,2.5304,2.5303,2.5268,2.5267,2.5266,2.5266,2.5332,2.5334,0,0,0,0,0,0,2.5566,2.5552,2.5504,2.5499,2.5505,2.5451,2.544,2.5434,2.5373,2.5362,2.5382,2.5375,2.531,2.5305,2.5301,2.5343,2.5266,2.5266,2.5265,2.5329,2.5332,2.5335,0,0,0,0,0,0,2.5568,2.5563,2.5507,2.5524,2.5515,2.5452,2.5445,2.5433,2.5424,2.5364,2.5351,2.5384,2.5308,2.5302,2.5309,2.5339,2.5265,2.5264,2.5327,2.533,2.5333,2.5429,0,0,0,0,0,0,2.557,2.5564,2.5579,2.5525,2.5514,2.5518,2.5447,2.5433,2.5422,2.5413,2.5363,2.5352,2.5306,2.5311,2.5308,2.5336,2.5263,2.5324,2.5328,2.5332,2.5423,2.5435,2.5446,0,0,0,0,0,2.5573,2.561,2.5581,2.5575,2.5532,2.552,2.5514,2.546,2.5425,2.5439,2.5401,2.5354,2.5336,2.5312,2.5308,2.5337,2.5321,2.5327,2.5332,2.5418,2.5433,2.5446,0,0,0,0,0,0,2.567,2.5602,2.5569,2.5589,2.5561,2.5503,2.552,2.5478,2.5459,2.5452,2.5385,2.5375,2.539,2.5364,2.5339,2.5372,2.5322,2.5326,2.5388,2.5402,2.5414,2.542,2.5263,0,0,0,0,0,2.5694,2.569,2.563,2.5654,2.5641,2.5583,2.5576,2.5537,2.5505,2.5493,2.5454,2.5425,2.5413,2.5406,2.5391,2.5419,2.5405,2.5436,2.5448,2.5457,2.5462,2.5473,2.5486,2.5352,2.5352,2.5352,0,0,2.5743,2.5705,2.5707,2.5672,2.5646,2.5643,2.5574,2.5574,2.5571,2.5493,2.5497,2.5468,2.543,2.5447,2.5453,2.5426,2.5496,2.5464,2.5472,2.5472,2.548,2.5493,2.5504,2.5356,2.5355,2.5354,0,0,2.5831,2.5802,2.5818,2.5793,2.5754,2.5714,2.5718,2.5667,2.5644,2.5647,2.5588,2.5583,2.5564,2.5539,2.5524,2.5601,2.5557,2.5598,2.5659,2.567,2.5681,2.569,2.5717,2.5727,2.5603,2.5604,2.5604,0,2.5897,2.589,2.5832,2.5835,2.5821,2.575,2.5765,2.5743,2.5702,2.5693,2.5664,2.5637,2.5607,2.5617,2.5635,2.5626,2.5628,2.5604,2.5684,2.5693,2.57,2.5725,2.5735,2.5609,2.5608,2.5608,2.5607,0,2.5973,2.5969,2.5986,2.5947,2.5935,2.5945,2.5887,2.5882,2.5844,2.5808,2.5811,2.5772,2.5748,2.5747,2.571,2.5751,2.5736,2.5697,2.5645,2.5719,2.5741,2.575,2.5616,2.5615,2.5613,2.5612,0,0,2.612,2.6048,2.6056,2.6036,2.5987,2.5983,2.5988,2.5964,2.5961,2.5934,2.5936,2.5921,2.5884,2.5867,2.5826,2.5836,2.5898,2.5795,2.5793,2.5815,2.594,2.597,2.5982,2.5868,2.587,2.5871,2.5943,0,2.6199,2.6204,2.6152,2.6171,2.6166,2.6098,2.6102,2.6073,2.6039,2.6029,2.5991,2.5981,2.5933,2.5922,2.5929,2.589,2.5922,2.5884,2.5869,2.587,2.5881,2.5993,2.6025,2.6094,2.5951,2.5952,2.5953,0,2.6291,2.6269,2.6289,2.6237,2.6233,2.6238,2.6211,2.6203,2.6167,2.6141,2.6122,2.6075,2.6076,2.6027,2.6027,2.6001,2.5992,2.5972,2.5973,2.597,2.5916,2.5992,2.6115,2.6126,2.5967,2.5965,2.5965,0,2.6396,2.6371,2.6379,2.6365,2.6305,2.631,2.6286,2.6247,2.6236,2.6212,2.6204,2.6181,2.6168,2.6151,2.6098,2.6068,2.6104,2.6051,2.6082,2.6083,2.6093,2.6093,2.6216,2.6088,2.6088,2.6088,2.6087,0,2.6489,2.6503,2.6425,2.643,2.6444,2.6382,2.6397,2.6366,2.6332,2.6329,2.6269,2.6267,2.6198,2.6188,2.6147,2.6153,2.6147,2.6126,2.6115,2.6132,2.6134,2.6125,2.6118,2.609,2.609,2.6089,2.6089,0,2.6609,2.6557,2.6561,2.6504,2.649,2.6503,2.6453,2.6455,2.6417,2.6414,2.6409,2.635,2.6335,2.6281,2.6253,2.6225,2.6244,2.6222,2.6256,2.6249,2.6283,2.628,2.6403,2.6416,2.6281,2.6283,2.6284,0,2.6671,2.6681,2.6625,2.6618,2.6596,2.6587,2.6574,2.6514,2.6504,2.6462,2.6469,2.6449,2.6431,2.641,2.6364,2.6342,2.6319,2.6364,2.6315,2.6331,2.6319,2.6319,2.6319,2.6374,2.6376,2.6378,2.6379,0,2.6788,2.6761,2.6746,2.6722,2.6709,2.6687,2.6661,2.6659,2.6592,2.6583,2.6567,2.6553,2.6523,2.6505,2.6475,2.6448,2.6402,2.6394,2.64,2.6417,2.6436,2.6425,2.6284,2.6392,2.639,2.639,2.6389,2.6388,2.688,2.6885,2.6846,2.6831,2.6805,2.6782,2.678,2.6742,2.6728,2.6699,2.6664,2.6653,2.6614,2.657,2.6547,2.6536,2.6511,2.652,2.6522,2.6525,2.6533,2.6438,2.653,2.653,2.6529,2.6529,2.6529,0,2.6993,2.6964,2.6951,2.6917,2.6904,2.6862,2.6831,2.6823,2.6814,2.6782,2.6765,2.6746,2.6727,2.6678,2.6654,2.6655,2.6633,2.6651,2.665,2.6644,2.6557,2.6554,2.6669,2.6669,2.6669,2.6669,2.6669,2.6669,2.705,2.7056,2.7025,2.7016,2.6987,2.6975,2.6961,2.6939,2.6913,2.6895,2.6879,2.6847,2.6809,2.6781,2.6761,2.6747,2.6741,2.6765,2.6745,2.6664,2.6651,2.6638,2.6635,2.6765,2.6765,2.6833,2.6833,2.6834]}]]